Other Public Products
Issued by NWS Grand Forks, ND

Home | Current Version | Previous Version | Graphics & Text | Print | Product List | Glossary On
Versions: 1 2 3 4 5 6 7 8 9 10 11 12 13 14 15 16 17 18 19 20 21 22 23 24 25 26 27 28 29 30 31 32 33 34 35 36 37 38 39 40 41 42 43 44 45 46 47 48 49 50
000
FPUS83 KFGF 301031
OPUFGF
PRAIRIE TO PINES WEATHER ROUNDUP
NATIONAL WEATHER SERVICE EASTERN NORTH DAKOTA/GRAND FORKS ND
500 AM CDT SUN AUG 30 2015

 **SATELLITE DATA USED TO AUGMENT SKY COVER AT AUTOMATED STATIONS**
 *****  WEATHER ACROSS EASTERN NORTH DAKOTA  *****

CITY           SKY/WX    TMP DP  RH WIND       PRES   REMARKS
GRAND FORKS    CLEAR     66  65  96 S10       29.77F
GRAND FORKS AF PTCLDY    66  66  99 S9        29.77S
GRAND CITY NWS   N/A     64 N/A N/A S13         N/A
BUXTON         NOT AVBL
DEVILS LAKE    MOCLDY    70  61  73 SE8       29.75S
FARGO          PTCLDY    65  62  90 SE13      29.83S
WAHPETON ARPT  MOSUNNY   61  59  94 SE9       29.86S
$$

 *****  WEATHER ACROSS CENTRAL AND WESTERN NORTH DAKOTA  *****

CITY           SKY/WX    TMP DP  RH WIND       PRES   REMARKS
JAMESTOWN      FOG       66  65  96 S9        29.79S VSB 3/4
BISMARCK       MOCLDY    64  61  90 E7        29.76F
MINOT          PTCLDY    73  57  57 SE5       29.69F
MINOT AFB      MOCLDY    66  61  84 SE6       29.68F
GARRISON         N/A     64  59  83 E3        29.73F
WILLISTON      CLOUDY    65  56  72 CALM      29.66F HAZE
DICKINSON      MOCLDY    65  51  60 S10       29.73F
HETTINGER      MOCLDY    63  49  60 CALM      29.79F
$$

 *****  OTHER OBSERVATIONS NORTHEAST NORTH DAKOTA  *****

CITY           SKY/WX    TMP DP  RH WIND       PRES   REMARKS
WALHALLA       FAIR      66  66 100 MISG      29.75S
LANGDON        FAIR      68  68 100 S9        29.77F
CAVALIER       CLOUDY    66  66 100 SE3       29.75F FOG
GRAFTON        FAIR      66  66 100 SE12      29.76F
CANDO          FAIR      66  66 100 SE8       29.75F
FORT TOTTEN      N/A     69  65  88 S7        29.95
ROLLA          PTSUNNY   63  63 100 S7        29.75F
RUGBY          FAIR      63  63 100 E6        29.73F
 ***** THE ABOVE OBSERVATIONS ARE NON NWS ARE NOT QUALITY
        CONTROLLED AND MAY MIS-REPORT RAIN FOR SNOW...
$$

 *****  OTHER OBSERVATIONS SOUTHEAST NORTH DAKOTA *****

CITY           SKY/WX    TMP DP  RH WIND       PRES   REMARKS
COOPERSTOWN    NOT AVBL
VALLEY CITY    FAIR      64  64 100 S10       29.81F
OAKES            N/A     64  64 100 S14       29.83S
GWINNER          N/A     66  66 100 S10       29.84S
SHEYENNE NWR     N/A     60  60  99 SE5       29.95
BUFFALO        NOT AVBL
WYNDMERE         N/A     61  61 100 SE5         N/A
 ***** THE ABOVE OBSERVATIONS ARE NON NWS ARE NOT QUALITY
       CONTROLLED AND MAY MIS-REPORT RAIN FOR SNOW...
$$

  *****  WEATHER ACROSS NORTHERN MINNESOTA  *****

CITY           SKY/WX    TMP DP  RH WIND       PRES   REMARKS
FLAG ISLAND    PTCLDY    66  64  94 S6        29.78F
WARROAD        CLEAR     66  63  88 SW9       29.80F
ROSEAU         PTCLDY    64  61  88 S5        29.80S
HALLOCK        PTCLDY    64  63  94 SE7       29.77S
THF RVR FALLS  CLEAR    N/A N/A N/A S8        29.82S
HALSTAD        NOT AVBL
FOSSTON        CLEAR     61  61 100 S8        29.86S
BAUDETTE       PTCLDY    64  61  90 S7        29.81F
WASKISH        CLEAR     64  63  94 S8        29.85S
CROOKSTON      PTCLDY    66  64  94 S10       29.81F
$$
  *****  WEATHER ACROSS CENTRAL AND WEST MINNESOTA  *****

CITY           SKY/WX    TMP DP  RH WIND       PRES   REMARKS
BEMIDJI        CLEAR     61  60  98 S6        29.88S
PARK RAPIDS    CLOUDY    64  62  93 S9        29.90S
WADENA         PTCLDY    61  59  94 S6        29.91S
DETROIT LAKES  CLEAR     63  63 100 S8        29.89F
MOORHEAD       PTCLDY    64  63  94 S9        29.85R
FERGUS FALLS   PTCLDY    63  63 100 S9        29.88S
ELBOW LAKE     FAIR      61  61  99 S13       29.89S
MORRIS MN      CLEAR     61  61 100 S12       29.90F FOG
STAPLES        CLOUDY    61  61 100 S8        29.92S
WHEATON        CLEAR     59  57  94 SE10      29.89S
$$
  *****  WEATHER ELSEWHERE ACROSS MINNESOTA  *****

CITY           SKY/WX    TMP DP  RH WIND       PRES   REMARKS
DULUTH         CLOUDY    63  61  93 SW14G22   29.95S FOG
INTRNTL FALLS  CLEAR     63  61  93 VRB7      29.84F
ELY            PTCLDY    61  57  88 SW7       29.92S
CLOQUET        CLOUDY    63  61  94 S9        29.95S
BRAINERD       CLOUDY    62  61  96 S9        29.93F
HIBBING        CLOUDY    61  60  97 S6        29.92F
ALEXANDRIA     CLEAR     62  61  96 S8        29.94R
SAINT CLOUD    MOCLDY    58  58 100 SE7       29.96F FOG
MINNEAPOLIS    MOCLDY    63  61  93 S5        30.00S
$$

  *****  WEATHER ACROSS SOUTH DAKOTA  *****

CITY           SKY/WX    TMP DP  RH WIND       PRES   REMARKS
SIOUX FALLS    CLOUDY    62  60  93 S13       29.98F FOG
BROOKINGS      CLOUDY    63  57  82 S12       29.98F
WATERTOWN      CLEAR     62  60  93 S12       29.93R FOG
HURON          CLEAR     65  63  93 S10       29.89S
SISSETON         N/A     62  60  93 S6        29.85S
ABERDEEN       CLEAR     65  63  93 S9        29.85S
MITCHELL       CLEAR     64  63  96 S9        29.92F
PIERRE         CLEAR     67  57  70 VRB3      29.83S
MOBRIDGE       MOCLDY    67  64  90 SE9       29.79S
RAPID CITY     PTCLDY    63  47  55 SE13      29.86F
$$

  *****  SOME WEATHER IN NEARBY STATES *****

CITY           SKY/WX    TMP DP  RH WIND       PRES   REMARKS
GLASGOW MT     PTCLDY    68  47  46 NW7       29.67R HAZE
GREAT FALLS MT MOCLDY    63  50  62 E8        29.81S HAZE
CHEYENNE WY    CLEAR     54  45  71 W7        30.13F
SCOTTSBLUFF NE PTCLDY    70  41  34 S9        29.99F
OMAHA NE       MOCLDY    62  60  93 SE6       30.03S FOG
DES MOINES IA  FOG       61  58  90 CALM      30.03S VSB 1/4
DAVENPORT IA   FOG       58  58 100 N3        30.05S VSB 1/4
CHICAGO IL     CLOUDY    65  63  93 N5        30.03R FOG
EAU CLAIRE WI  CLEAR     58  55  90 CALM      30.02R
LA CROSSE WI   MOCLDY    59  58  96 SE6       30.04S FOG
$$

  *****  SOME NATIONAL WEATHER *****

CITY           SKY/WX    TMP DP  RH WIND       PRES   REMARKS
LA GUARDIA NY  PTCLDY    73  62  68 SW6       30.08S
RALEIGH NC     MOCLDY    65  61  87 CALM      30.14R
ATLANTA GA     CLOUDY    72  64  76 NE7       30.10S
NEW ORLEANS LA PTCLDY    75  67  76 CALM      30.01R
OKLAHOMA CITY  PTCLDY    67  65  93 NW8       29.97F
ALBUQUERQUE NM CLEAR     68  49  50 N6        30.23S
SALT LAKE CITY MOCLDY    83  45  26 S17G24    29.90S
LOS ANGELES CA FAIR      72  67  84 SE5       29.86S
BOISE ID       FAIR      68  39  34 W6        29.89R
SEATTLE WA     MOCLDY    56  54  93 S7        29.79R
$$

*** WEATHER ACROSS MANITOBA...SASKATCHEWAN AND ONTARIO ***
                ***ONTARIO***

CITY           SKY/WX    TMP DP  RH WIND       PRES   REMARKS
GERALDTON      CLOUDY    61  61 100 SW8       29.89F
THUNDER BAY    PTCLDY    55  54  94 CALM      29.90F
SIOUX LOOKOUT  CLOUDY    66  64  94 SW7       29.80S
TORONTO        MOCLDY    66  61  82 SW3       30.06S
BIG TROUT LK   CLOUDY    68  61  77 W8        29.57S
PICKLE LAKE    NOT AVBL
DRYDEN         CLOUDY    66  63  88 SW9       29.81S
KENORA         CLOUDY    66  64  94 SW12      29.80R
$$
                *** MANITOBA***

CITY           SKY/WX    TMP DP  RH WIND       PRES   REMARKS
BRANDON        MOCLDY    61  59  94 E6        29.73R SMOKE
DAUPHIN        PTCLDY    57  55  94 W3        29.70R
ISLAND LAKE    CLOUDY    64  64 100 NW7       29.63R
PILOT MOUND      N/A     66  64  94 SE8         N/A
THE PAS        CLOUDY    63  61  94 E5        29.68S
THOMPSON       DRIZZLE   50  50 100 NE9       29.75R
WINNIPEG       PTCLDY    64  64 100 S8        29.74S
LYNN LAKE      CLOUDY    52  50  93 MISG      29.77R
CHURCHILL      DRIZZLE   46  46 100 E16       29.84R FOG
$$
                ***SASKATCHEWAN***

CITY           SKY/WX    TMP DP  RH WIND       PRES   REMARKS
ESTEVAN        CLOUDY    66  55  68 VRB8      29.67S SMOKE
KINDERSLEY     PTCLDY    64  41  42 SW15G21   29.61F
LLOYDMINSTER   CLEAR     55  48  76 S12       29.52R
PRINCE ALBERT  LGT RAIN  70  55  60 S9        29.57F
REGINA         CLOUDY    72  50  46 SE15      29.64F SMOKE
YORKTON        CLOUDY    59  55  88 CALM      29.70F



USA.gov is the U.S. government's official web portal to all federal, state and local government web resources and services.